SCP
1 1 0 0 0 0 0 0 0 0 0 0 0 0 0 0 1 1 1 1 1 1 1 1 1 1 2 2 2 2 2 1 1 2 2 2 2 2 2 1 1 1 0
1 1 0 0 0 0 0 0 0 0 0 0 0 0 0 1 1 1 1 0 1 1 1 1 1 1 1 2 2 2 2 2 1 2 2 2 2 2 2 1 1 1 1
1 1 0 0 0 0 0 0 0 0 0 0 0 0 1 1 1 1 0 0 0 1 1 1 1 1 1 1 2 2 2 2 2 2 2 2 3 3 2 1 1 1 1
1 0 0 0 0 0 0 0 0 0 0 0 0 1 1 1 1 1 0 0 0 0 1 1 1 1 1 1 1 2 2 2 2 2 2 2 2 2 2 1 1 1 1
0 0 0 0 0 0 0 0 0 0 0 0 0 0 1 1 1 0 0 0 0 0 0 1 1 1 1 1 1 1 2 2 2 2 2 2 2 2 2 2 1 1 1
1 1 1 0 0 0 0 0 0 0 0 0 0 0 1 1 1 0 0 0 0 0 0 1 1 1 1 1 1 1 1 2 2 2 2 2 2 2 2 2 1 1 1
1 1 1 1 1 1 0 0 0 0 0 0 0 0 0 0 0 0 0 0 0 0 1 1 1 1 1 1 1 1 1 1 1 2 2 2 2 2 2 2 2 1 1
1 1 1 1 1 1 1 0 0 0 0 0 0 0 0 0 0 0 0 0 0 0 1 1 1 1 1 1 1 1 1 1 1 1 2 2 2 2 2 2 2 2 1
1 1 1 1 1 1 0 0 0 0 0 0 0 0 0 0 0 0 0 0 0 0 1 1 1 1 0 0 0 0 1 1 1 1 1 1 2 2 2 2 2 2 2
1 1 1 1 1 1 0 0 0 0 0 0 0 0 0 0 0 0 0 0 0 0 0 1 1 0 0 0 0 0 0 0 0 1 1 1 1 2 2 2 2 2 2
1 1 1 1 1 0 0 0 0 0 0 0 0 0 0 0 0 0 0 0 0 0 0 0 0 0 0 0 0 0 0 0 0 1 1 1 1 1 2 2 2 2 2
1 1 1 1 1 0 0 1 1 1 1 1 1 1 0 0 0 0 1 0 0 0 0 0 0 0 0 0 0 0 0 0 0 0 0 1 1 1 1 1 1 1 1
1 1 1 1 1 1 1 1 1 1 1 1 1 1 1 1 1 1 1 0 0 0 0 0 0 0 0 0 0 0 0 0 0 0 0 0 1 1 1 1 1 1 1
1 1 1 1 1 1 1 1 1 2 2 2 1 1 1 1 1 1 1 0 0 0 0 0 0 0 0 0 0 0 0 0 0 0 0 0 0 0 1 1 1 1 1
1 1 1 1 1 1 1 1 1 2 2 2 2 1 1 1 1 1 1 1 0 0 0 0 0 0 0 0 0 0 0 0 0 0 0 0 0 0 1 1 1 1 1
1 1 1 1 1 1 1 1 1 2 2 2 2 2 1 1 1 1 1 1 1 1 1 1 0 0 0 0 0 0 0 0 0 0 0 0 0 0 0 0 0 0 1
1 1 1 1 0 0 0 1 1 1 1 2 2 2 1 1 2 1 1 1 1 1 1 1 0 0 0 0 0 0 0 0 0 0 0 0 0 0 0 0 0 0 0
2 1 1 1 1 0 0 0 1 1 1 1 1 1 1 1 1 2 2 2 1 1 1 1 1 0 0 0 0 0 0 0 0 0 0 0 0 0 0 0 0 0 0
2 2 1 1 1 1 0 1 1 1 1 1 1 1 1 1 1 1 1 1 1 1 1 1 1 0 0 0 0 0 0 0 0 0 0 0 0 0 0 0 0 0 0
2 2 1 1 1 1 1 1 1 1 1 1 1 1 1 1 1 1 1 1 1 1 1 1 1 0 0 0 0 0 0 0 0 0 0 0 0 0 0 0 0 0 0
2 2 1 1 1 1 1 1 1 1 1 1 1 1 1 1 1 1 1 1 1 1 1 1 1 0 0 0 0 0 0 0 0 0 0 0 0 0 0 0 0 0 0
2 2 1 1 1 1 1 1 1 1 1 1 1 1 1 1 1 1 0 0 1 1 1 1 0 0 0 0 0 0 0 0 0 0 0 0 0 0 0 0 0 0 0
2 2 2 2 2 1 1 0 1 1 1 1 1 1 1 1 1 0 0 0 0 0 0 0 0 0 0 0 0 0 0 0 0 0 0 0 0 0 0 0 0 0 0
3 2 1 2 2 1 1 0 1 1 0 0 0 0 0 0 0 0 0 0 0 0 0 0 0 0 0 0 0 0 0 0 0 0 0 0 0 0 0 0 0 0 0
3 2 1 1 1 1 1 0 1 1 1 0 0 0 0 0 0 0 0 0 0 0 0 0 0 0 0 0 0 0 0 0 0 0 0 0 0 0 0 0 0 0 0
4 3 1 1 1 1 1 1 1 1 1 0 0 0 0 0 0 0 0 0 0 0 0 0 0 0 0 0 0 0 0 0 0 0 0 0 0 0 0 0 0 0 0
Wind_Speed
2 2 2 1 1 1 1 1 2 3 3 3 4 4 4 5 5 4 4 9 11 10 10 10 9 9 9 9 9 9 9 9 9 9 9 8 8 8 8 7 7 7 7
2 2 2 2 1 1 1 1 2 2 2 2 3 4 4 4 4 4 4 5 9 9 9 9 9 9 9 9 9 9 9 9 9 8 9 9 8 9 8 8 7 7 6
3 3 2 2 2 2 3 2 3 2 2 2 3 3 3 3 3 3 3 3 4 7 8 8 8 8 8 9 9 9 8 8 8 8 8 8 8 8 7 8 7 7 7
4 3 2 2 2 2 2 2 2 2 2 2 2 2 2 1 2 2 2 3 3 3 5 7 7 7 8 8 8 8 8 8 8 8 7 7 7 7 8 8 8 8 7
4 3 2 1 3 2 2 2 2 2 2 2 1 1 1 1 1 2 2 3 3 3 3 5 6 6 7 7 7 7 7 7 7 8 7 7 7 7 7 7 7 7 7
3 3 2 2 3 2 1 1 2 1 1 0 1 1 1 1 1 1 1 2 2 3 3 4 3 4 6 6 6 6 6 6 6 6 6 6 6 6 6 6 6 6 7
3 3 2 2 2 2 1 1 1 2 1 1 1 1 1 0 2 1 1 1 2 2 2 3 2 2 3 5 5 5 5 5 5 5 5 5 5 6 5 5 6 6 6
2 2 2 1 2 2 1 1 2 1 1 2 1 1 0 2 2 1 1 1 2 1 1 2 2 3 2 2 3 5 5 5 4 4 4 4 4 4 4 5 5 5 5
2 1 1 1 1 1 1 1 1 1 1 2 1 1 1 0 1 1 1 2 2 1 1 1 2 3 3 3 2 4 4 4 4 3 4 4 4 4 4 4 4 5 5
2 1 1 1 1 1 1 1 1 1 0 1 1 1 0 1 1 0 2 1 2 2 1 1 2 2 3 3 4 5 5 4 4 3 3 4 4 4 3 4 4 4 4
1 1 0 0 0 0 1 1 1 1 0 0 0 1 1 1 0 1 1 1 1 0 1 2 2 2 3 3 3 5 5 4 4 3 3 3 4 3 4 3 3 3 3
1 2 1 1 1 0 1 1 1 1 0 0 1 0 0 0 1 0 0 0 0 1 1 2 2 2 2 3 4 6 5 4 4 3 4 4 4 4 3 3 3 2 2
1 2 2 2 1 1 1 1 1 1 1 1 1 1 1 1 1 1 1 0 0 0 1 1 1 2 2 3 3 5 4 3 3 3 3 4 4 4 3 3 3 3 2
2 2 2 2 2 2 1 1 1 1 1 2 2 1 1 1 0 0 1 1 0 1 0 0 1 2 2 3 4 4 2 3 3 3 2 3 3 3 3 3 3 3 2
2 2 3 3 2 2 2 2 1 2 1 1 1 1 1 1 0 0 1 2 2 1 1 0 0 1 2 2 4 2 2 2 3 2 2 1 2 2 2 3 3 2 2
3 3 2 3 3 3 3 2 2 1 1 1 1 1 1 1 0 0 0 0 1 2 1 1 1 1 2 2 3 2 2 3 3 2 1 1 0 1 1 2 3 2 2
2 3 3 2 3 3 3 2 2 2 2 2 1 1 2 1 1 1 0 0 0 1 1 1 0 1 2 2 1 1 2 2 2 3 3 2 1 1 0 1 2 2 1
2 2 2 3 3 2 2 3 3 3 3 3 3 2 2 2 2 1 1 1 1 1 2 1 0 0 1 2 2 2 1 2 2 3 4 3 3 2 1 1 1 1 1
1 2 2 2 2 2 2 2 3 3 3 3 3 2 2 2 2 1 2 1 1 1 1 2 1 1 0 1 1 1 1 1 1 3 4 4 4 4 3 3 2 1 2
2 2 2 2 2 2 2 2 2 2 3 3 2 2 2 2 3 2 2 1 1 1 1 1 1 1 1 1 1 1 1 1 1 1 1 2 3 5 5 4 2 2 2
2 2 1 1 1 1 1 1 1 2 3 2 2 3 3 3 3 3 2 1 1 1 1 2 2 1 1 1 1 1 1 1 2 1 1 1 1 1 2 3 3 3 2
1 1 1 1 1 0 0 0 1 1 2 2 2 2 3 3 4 4 3 2 3 3 2 2 2 2 2 2 1 1 1 1 2 1 1 2 1 2 2 2 4 4 3
1 1 1 1 1 1 0 0 1 1 2 2 2 2 1 2 3 2 3 4 3 4 4 3 3 3 3 3 3 2 2 2 3 2 1 2 1 2 2 2 5 5 4
1 1 1 1 1 1 1 0 1 1 2 2 2 2 2 2 2 1 2 2 2 2 3 3 3 3 3 3 4 4 3 2 2 1 2 1 2 2 2 2 5 5 5
1 2 1 1 1 1 2 1 0 1 2 2 2 1 1 2 1 2 2 1 1 1 2 2 2 3 3 3 2 1 1 1 1 2 1 1 2 2 1 2 2 4 4
2 2 2 2 2 2 2 2 1 2 2 2 1 0 1 1 1 2 2 2 2 1 1 1 1 1 2 3 3 3 3 2 1 1 2 1 1 0 1 1 1 1 2
Wind_Direction
113 111 100 90 72 72 71 52 52 47 37 34 49 64 65 82 92 89 79 77 76 74 74 75 76 77 77 76 73 71 71 72 73 73 70 69 67 63 61 62 62 59 59
101 102 100 89 77 66 59 61 66 61 57 46 47 52 61 71 92 105 105 85 79 78 76 75 75 75 76 75 73 71 71 70 70 69 68 66 66 64 59 57 57 57 57
89 89 83 79 71 63 52 41 43 38 57 64 57 52 58 65 88 99 111 115 98 83 83 80 78 76 77 76 75 73 71 71 68 67 66 66 64 64 58 57 57 56 56
81 81 82 79 75 65 59 52 43 37 32 46 45 45 65 53 81 102 110 118 118 104 91 89 84 82 81 78 76 77 73 71 67 64 66 67 64 62 58 55 56 55 55
96 87 77 80 75 69 58 49 56 38 43 45 65 67 76 59 57 80 92 108 116 125 120 105 98 91 84 79 76 76 74 68 67 66 65 65 65 64 61 57 59 57 56
97 102 94 84 80 74 69 67 73 30 25 347 23 62 95 119 80 78 91 96 107 120 128 127 128 101 89 82 76 76 76 72 71 72 70 67 65 65 64 59 58 56 59
73 89 86 76 83 81 66 52 62 36 353 357 49 25 353 78 106 126 95 85 78 90 108 117 121 120 107 86 73 73 71 68 69 71 68 65 62 59 62 59 56 55 61
69 75 99 99 95 92 65 55 58 36 339 355 58 75 22 357 353 105 106 115 94 79 73 95 108 110 108 111 82 75 70 68 72 68 62 63 60 53 57 56 53 55 61
80 67 64 86 105 116 116 104 98 90 343 324 6 94 104 182 299 321 202 128 120 99 74 70 86 96 101 97 95 73 77 70 71 65 57 53 51 49 51 57 56 55 56
104 80 68 77 91 101 114 187 102 103 72 316 328 349 276 134 132 329 326 46 128 130 122 90 84 92 97 100 98 90 82 74 66 58 48 38 36 38 43 54 53 52 53
132 142 142 110 120 123 144 134 97 97 162 234 295 320 351 4 295 140 224 306 358 146 132 111 104 95 96 103 104 90 81 75 64 55 41 31 26 28 31 36 38 40 48
170 178 186 189 176 164 173 153 127 171 215 267 308 314 143 205 260 145 184 220 203 289 109 102 108 112 106 100 100 100 90 81 70 61 44 29 19 18 19 20 22 20 26
184 202 185 193 193 200 191 146 144 212 213 220 255 280 284 260 210 148 105 332 358 275 92 120 151 130 115 105 109 116 108 102 86 78 56 34 24 17 12 11 14 10 14
194 198 191 197 203 194 191 170 195 226 216 218 236 237 290 290 293 152 144 130 31 328 20 206 116 126 121 122 134 135 130 123 107 88 67 46 27 14 8 4 5 1 8
198 203 199 197 194 192 190 182 202 227 230 243 230 215 219 262 318 296 136 145 153 178 273 211 112 147 135 124 148 149 144 146 126 114 95 63 27 11 9 8 7 9 14
195 200 205 193 190 191 187 186 196 228 206 241 234 201 213 227 222 308 21 94 142 151 193 247 204 169 141 137 160 156 155 150 162 170 163 144 30 15 15 9 9 11 26
204 191 193 195 199 193 189 181 196 215 221 235 235 205 216 206 170 188 136 79 99 115 156 278 316 138 124 134 124 170 169 158 186 191 190 186 200 243 288 339 349 354 25
224 214 203 194 200 200 191 183 201 210 216 223 221 208 215 196 192 189 167 193 202 184 164 197 264 159 167 161 161 186 197 184 193 187 193 208 219 229 250 270 289 294 253
220 226 221 206 196 189 199 212 204 209 217 217 204 202 213 187 201 201 185 191 205 197 157 166 221 230 213 182 165 220 239 229 230 192 198 214 224 229 238 248 260 266 243
219 229 231 211 199 189 207 219 208 217 220 212 196 199 210 192 197 193 192 190 188 172 169 169 184 208 222 214 148 204 277 281 272 214 215 215 223 230 231 233 237 246 239
237 224 232 203 192 189 214 230 226 234 217 210 209 207 203 193 178 169 165 174 173 187 182 174 184 197 219 177 204 220 233 260 270 220 207 234 218 230 232 226 228 232 229
235 210 226 198 192 242 357 334 317 259 234 217 219 215 200 181 181 182 188 193 190 192 192 187 194 198 208 200 199 214 217 220 272 252 172 251 206 221 230 207 205 211 231
209 226 205 162 159 177 202 264 280 262 252 248 237 221 219 175 166 188 200 203 213 218 211 197 202 208 201 198 190 212 225 216 236 234 162 261 240 236 241 222 200 203 219
201 214 238 205 177 172 143 83 288 251 256 250 233 220 200 185 186 165 181 191 208 213 214 209 210 213 199 192 192 205 219 229 253 241 143 235 256 253 256 234 209 211 222
215 210 212 221 212 185 171 179 216 248 255 251 245 221 176 167 157 130 151 180 197 266 255 216 214 219 209 206 194 173 209 181 260 258 203 194 256 272 254 238 232 222 227
212 216 213 203 194 191 190 187 198 229 248 252 235 128 93 123 122 137 162 175 206 248 302 314 290 274 237 218 210 190 188 198 212 236 226 189 246 297 295 266 228 230 243